Location: Unspecified
(49.9820°N, 20.4363°E)
Time: 22:29:55
(UTC+02:00)

ISS - Pass Details

Date: 19 July 2018
Orbit: 402 x 408 km, 51.6° (Epoch: 20 July)

Event Time Altitude Azimuth Distance (km) Brightness Sun altitude
Rises 03:07:19 0° 287° (WNW) 2,333 -0.1 -12.4°
Reaches altitude 10° 03:09:24 10° 285° (WNW) 1,471 -1.2 -12.2°
Maximum altitude 03:12:41 74° 202° (SSW) 429 -3.9 -11.9°
Drops below altitude 10° 03:15:59 10° 116° (ESE) 1,468 -0.9 -11.6°
Sets 03:18:04 0° 114° (ESE) 2,328 0.2 -11.4°
